NK0V Weather Reports


Display with metric or nautical units.
time (UTC)temp
F
wind
direction
speed
MPH
gust
MPH
rain 1hr
in
rain 24hr
in
rain mn
in
humidity
%
barometer
mb
20260905071601 74 120 1.0 8.0 0.00 0.00 0.00 86 1015.3
20260905071102 74 101 0.0 4.0 0.00 0.00 0.00 86 1015.4
20260905070555 74 0 0.0 4.0 0.00 0.00 0.00 86 1015.5
20260905065559 74 98 1.0 8.0 0.00 0.00 0.00 86 1015.6
20260905065058 74 0 1.0 6.0 0.00 0.00 0.00 86 1015.5
20260905064604 73 69 1.0 6.0 0.00 0.00 0.00 86 1015.5
20260905064058 73 72 0.0 6.0 0.00 0.00 0.00 86 1015.5
20260905063559 73 63 0.0 6.0 0.00 0.00 0.00 86 1015.6
20260905063104 73 0 0.0 5.0 0.00 0.00 0.00 87 1015.5
20260905062554 73 65 0.0 7.0 0.00 0.00 0.00 87 1015.6
20260905062058 73 0 0.0 7.0 0.00 0.00 0.00 87 1015.5
20260905061602 73 0 0.0 5.0 0.00 0.00 0.00 87 1015.6
20260905061100 73 60 0.0 5.0 0.00 0.00 0.00 86 1015.5
20260905060558 73 0 0.0 5.0 0.00 0.00 0.00 86 1015.6
20260905060106 73 0 0.0 3.0 0.00 0.00 0.00 86 1015.6
20260905055559 73 0 0.0 4.0 0.00 0.00 0.00 86 1015.6
20260905055056 73 0 0.0 4.0 0.00 0.00 0.00 86 1015.5
20260905054559 73 0 0.0 4.0 0.00 0.00 0.00 85 1015.5
20260905054058 73 96 0.0 4.0 0.00 0.00 0.00 85 1015.4
20260905053558 73 0 0.0 6.0 0.00 0.00 0.00 85 1015.4
20260905053124 73 90 1.0 6.0 0.00 0.00 0.00 85 1015.2
20260905052558 73 71 1.0 6.0 0.00 0.00 0.00 85 1015.1
20260905052055 73 81 0.0 6.0 0.00 0.00 0.00 85 1015.1
20260905051606 73 0 1.0 5.0 0.00 0.00 0.00 85 1015.1
20260905051058 73 0 0.0 7.0 0.00 0.00 0.00 85 1015.1
20260905050558 73 106 1.0 7.0 0.00 0.00 0.00 85 1015.0
20260905050118 73 98 0.0 4.0 0.00 0.00 0.00 85 1015.0
20260905045555 73 0 0.0 4.0 0.00 0.00 0.00 84 1015.0
20260905045056 73 65 0.0 6.0 0.00 0.00 0.00 84 1015.0
20260905044603 74 0 1.0 6.0 0.00 0.00 0.00 84 1014.9
20260905044058 74 79 0.0 6.0 0.00 0.00 0.00 84 1014.9
20260905043558 74 67 0.0 5.0 0.00 0.00 0.00 84 1014.9
20260905043110 74 98 1.0 4.0 0.00 0.00 0.00 83 1014.8
20260905042556 74 0 0.0 4.0 0.00 0.00 0.00 83 1014.8
20260905042058 74 0 0.0 6.0 0.00 0.00 0.00 83 1014.9
20260905041607 74 91 0.0 6.0 0.00 0.00 0.00 83 1014.8
20260905041056 74 49 0.0 4.0 0.00 0.00 0.00 82 1014.8
20260905040556 74 0 0.0 7.0 0.00 0.00 0.00 82 1014.8
20260905040108 74 83 0.0 7.0 0.00 0.00 0.00 82 1014.7
20260905035602 74 54 1.0 5.0 0.00 0.00 0.00 82 1014.9
20260905035058 74 0 1.0 6.0 0.00 0.00 0.00 82 1014.9
20260905034617 74 72 1.0 6.0 0.00 0.00 0.00 82 1014.8
20260905034057 74 132 1.0 7.0 0.00 0.00 0.00 82 1014.9
20260905033555 74 47 2.0 7.0 0.00 0.00 0.00 81 1015.0
20260905033119 74 110 1.0 6.0 0.00 0.00 0.00 81 1015.0
20260905032557 74 115 1.0 6.0 0.00 0.00 0.00 81 1015.0
20260905032057 74 0 0.0 4.0 0.00 0.00 0.00 81 1015.0
20260905031613 75 48 0.0 3.0 0.00 0.00 0.00 80 1015.1
20260905031056 75 0 0.0 4.0 0.00 0.00 0.00 80 1015.1
20260905030555 75 126 1.0 4.0 0.00 0.00 0.00 79 1015.0
20260905030105 75 57 0.0 4.0 0.00 0.00 0.00 79 1014.9
20260905025556 75 72 1.0 4.0 0.00 0.00 0.00 78 1014.7
20260905025058 75 83 1.0 4.0 0.00 0.00 0.00 78 1014.7
20260905024604 76 81 1.0 6.0 0.00 0.00 0.00 78 1014.7
20260905024058 76 74 0.0 6.0 0.00 0.00 0.00 77 1014.7
20260905023559 76 0 1.0 6.0 0.00 0.00 0.00 77 1014.7
20260905023127 76 82 0.0 3.0 0.00 0.00 0.00 77 1014.7
20260905022557 77 0 0.0 3.0 0.00 0.00 0.00 77 1014.7
20260905022057 77 0 0.0 1.0 0.00 0.00 0.00 77 1014.7
20260905021602 77 94 0.0 2.0 0.00 0.00 0.00 77 1014.6
20260905021058 77 0 0.0 2.0 0.00 0.00 0.00 76 1014.6
20260905020558 78 65 0.0 2.0 0.00 0.00 0.00 76 1014.5
20260905020104 78 0 0.0 2.0 0.00 0.00 0.00 76 1014.4
20260905015558 78 0 0.0 3.0 0.00 0.00 0.00 75 1014.3
20260905015055 78 0 0.0 3.0 0.00 0.00 0.00 75 1014.2
20260905014601 78 0 0.0 3.0 0.00 0.00 0.00 74 1014.1
20260905014058 79 0 0.0 2.0 0.00 0.00 0.00 73 1014.1
20260905013555 79 0 0.0 3.0 0.00 0.00 0.00 73 1014.0
20260905013106 79 81 0.0 3.0 0.00 0.00 0.00 73 1014.0
20260905012559 79 0 0.0 4.0 0.00 0.00 0.00 72 1013.9
20260905012057 80 101 0.0 4.0 0.00 0.00 0.00 72 1013.9
20260905011602 80 0 0.0 4.0 0.00 0.00 0.00 72 1013.8
20260905011101 80 0 0.0 7.0 0.00 0.00 0.00 71 1013.8
20260905010559 81 0 1.0 7.0 0.00 0.00 0.00 71 1013.8
20260905010112 81 69 0.0 5.0 0.00 0.00 0.00 70 1013.8
20260905005558 81 0 0.0 6.0 0.00 0.00 0.00 70 1013.8
20260905005101 82 0 1.0 6.0 0.00 0.00 0.00 69 1013.8
20260905004633 82 14 0.0 7.0 0.00 0.00 0.00 69 1013.8
20260905004056 82 68 1.0 7.0 0.00 0.00 0.00 68 1013.8
20260905003600 83 0 0.0 3.0 0.00 0.00 0.00 68 1013.8
20260905003120 83 94 1.0 6.0 0.00 0.00 0.00 67 1013.9
20260905002557 83 0 1.0 6.0 0.00 0.00 0.00 67 1013.7
20260905002058 83 40 1.0 4.0 0.00 0.00 0.00 67 1013.7
20260905001603 84 86 0.0 4.0 0.00 0.00 0.00 66 1013.7
20260905001055 84 57 0.0 2.0 0.00 0.00 0.00 66 1013.7
20260905000555 84 32 0.0 4.0 0.00 0.00 0.00 66 1013.6
20260905000137 84 0 0.0 7.0 0.00 0.00 0.00 65 1013.7
20260904235559 84 63 1.0 7.0 0.00 0.00 0.00 64 1013.8
20260904235058 85 329 1.0 6.0 0.00 0.00 0.00 64 1013.7
20260904234600 85 59 1.0 3.0 0.00 0.00 0.00 63 1013.7
20260904234058 85 0 0.0 8.0 0.00 0.00 0.00 63 1013.6
20260904233602 85 44 1.0 8.0 0.00 0.00 0.00 62 1013.6
20260904233103 85 0 1.0 8.0 0.00 0.00 0.00 61 1013.6
20260904232556 85 45 1.0 6.0 0.00 0.00 0.00 61 1013.6
20260904232101 85 0 1.0 5.0 0.00 0.00 0.00 60 1013.6
20260904231602 86 0 0.0 5.0 0.00 0.00 0.00 60 1013.7
20260904231058 86 121 1.0 6.0 0.00 0.00 0.00 60 1013.6
20260904230558 86 59 0.0 7.0 0.00 0.00 0.00 59 1013.7
20260904230114 86 31 1.0 7.0 0.00 0.00 0.00 59 1013.7
20260904225558 86 79 0.0 3.0 0.00 0.00 0.00 58 1013.7
20260904225055 86 9 0.0 5.0 0.00 0.00 0.00 59 1013.8
20260904224604 86 0 1.0 7.0 0.00 0.00 0.00 58 1013.9
20260904224101 86 0 1.0 7.0 0.00 0.00 0.00 58 1013.9
20260904223601 86 360 0.0 4.0 0.00 0.00 0.00 59 1014.0
20260904223102 87 5 0.0 4.0 0.00 0.00 0.00 58 1013.9
20260904222559 87 49 1.0 3.0 0.00 0.00 0.00 57 1014.0
20260904222055 87 28 1.0 5.0 0.00 0.00 0.00 55 1013.9
20260904221608 87 86 0.0 5.0 0.00 0.00 0.00 55 1014.0
20260904221058 87 43 1.0 5.0 0.00 0.00 0.00 55 1014.0
20260904220559 87 24 0.0 2.0 0.00 0.00 0.00 55 1014.0
20260904220106 87 0 0.0 4.0 0.00 0.00 0.00 53 1014.0
20260904215556 87 0 0.0 4.0 0.00 0.00 0.00 54 1013.9
20260904215056 87 17 1.0 8.0 0.00 0.00 0.00 53 1014.0
20260904214607 88 69 1.0 8.0 0.00 0.00 0.00 53 1013.9
20260904214056 88 70 2.0 6.0 0.00 0.00 0.00 52 1013.8
20260904213558 88 40 1.0 4.0 0.00 0.00 0.00 52 1013.7
20260904213102 88 24 1.0 8.0 0.00 0.00 0.00 52 1013.7
20260904212556 88 61 1.0 8.0 0.00 0.00 0.00 50 1013.7
20260904212058 88 62 1.0 8.0 0.00 0.00 0.00 52 1013.7
20260904211604 88 76 1.0 7.0 0.00 0.00 0.00 51 1013.6
20260904211055 89 27 1.0 7.0 0.00 0.00 0.00 50 1013.7
20260904210555 89 33 1.0 7.0 0.00 0.00 0.00 51 1013.7
20260904210100 89 29 1.0 7.0 0.00 0.00 0.00 51 1013.7
20260904205558 89 73 1.0 9.0 0.00 0.00 0.00 51 1013.8
20260904205057 89 355 1.0 9.0 0.00 0.00 0.00 51 1013.7
20260904204601 89 109 1.0 6.0 0.00 0.00 0.00 51 1013.7
20260904204057 89 32 1.0 8.0 0.00 0.00 0.00 49 1013.8
20260904203558 89 121 1.0 8.0 0.00 0.00 0.00 52 1013.8
20260904203104 89 136 1.0 8.0 0.00 0.00 0.00 49 1013.8
20260904202557 89 0 1.0 7.0 0.00 0.00 0.00 49 1013.9
20260904202056 90 13 2.0 5.0 0.00 0.00 0.00 46 1013.8
20260904201628 90 32 1.0 5.0 0.00 0.00 0.00 47 1013.8
20260904201055 90 34 1.0 7.0 0.00 0.00 0.00 49 1013.9
20260904200558 90 75 2.0 7.0 0.00 0.00 0.00 47 1013.8
20260904200110 90 57 1.0 5.0 0.00 0.00 0.00 47 1013.9
20260904195602 90 39 2.0 6.0 0.00 0.00 0.00 47 1013.9
20260904195057 91 76 2.0 6.0 0.00 0.00 0.00 45 1014.0
20260904194602 91 35 2.0 7.0 0.00 0.00 0.00 43 1014.0
20260904194058 91 0 1.0 8.0 0.00 0.00 0.00 44 1013.8
20260904193558 91 24 1.0 8.0 0.00 0.00 0.00 44 1013.9
20260904193104 91 20 2.0 9.0 0.00 0.00 0.00 44 1014.0
20260904192556 92 0 2.0 9.0 0.00 0.00 0.00 44 1013.9
20260904192058 91 0 2.0 9.0 0.00 0.00 0.00 44 1013.9
20260904191601 91 105 2.0 9.0 0.00 0.00 0.00 45 1013.9
20260904191100 91 65 1.0 4.0 0.00 0.00 0.00 47 1013.8
20260904190602 91 91 1.0 5.0 0.00 0.00 0.00 46 1013.9
20260904185559 91 32 1.0 6.0 0.00 0.00 0.00 49 1013.9
20260904185059 91 0 1.0 7.0 0.00 0.00 0.00 48 1014.0
20260904184604 91 24 2.0 10.0 0.00 0.00 0.00 45 1014.0
20260904184056 91 59 1.0 10.0 0.00 0.00 0.00 45 1014.0
20260904183556 90 53 2.0 10.0 0.00 0.00 0.00 44 1014.1
20260904183116 90 63 2.0 6.0 0.00 0.00 0.00 46 1014.1
20260904182555 90 75 1.0 9.0 0.00 0.00 0.00 46 1014.2
20260904182058 90 120 2.0 9.0 0.00 0.00 0.00 44 1014.1
20260904181600 90 76 1.0 6.0 0.00 0.00 0.00 45 1014.1
20260904181056 90 52 1.0 7.0 0.00 0.00 0.00 43 1014.1
20260904180558 90 351 1.0 7.0 0.00 0.00 0.00 42 1014.1
20260904180104 90 64 1.0 7.0 0.00 0.00 0.00 47 1014.1
20260904175555 90 0 1.0 7.0 0.00 0.00 0.00 48 1014.0
20260904175059 90 40 2.0 7.0 0.00 0.00 0.00 48 1014.0
20260904174608 90 30 2.0 7.0 0.00 0.00 0.00 45 1013.9
20260904174055 89 20 1.0 6.0 0.00 0.00 0.00 48 1013.8
20260904173556 89 28 2.0 6.0 0.00 0.00 0.00 44 1013.8
20260904173106 89 44 1.0 5.0 0.00 0.00 0.00 44 1013.8
20260904172556 89 74 2.0 5.0 0.00 0.00 0.00 44 1013.8
20260904172059 89 11 2.0 6.0 0.00 0.00 0.00 45 1013.7
20260904171616 89 30 1.0 6.0 0.00 0.00 0.00 45 1013.8
20260904171100 89 9 2.0 7.0 0.00 0.00 0.00 47 1013.8
20260904170555 88 40 1.0 7.0 0.00 0.00 0.00 43 1013.8
20260904170105 88 76 2.0 6.0 0.00 0.00 0.00 45 1013.6
20260904165557 88 19 1.0 8.0 0.00 0.00 0.00 50 1013.7
20260904165103 88 46 1.0 8.0 0.00 0.00 0.00 50 1013.7
20260904164623 88 33 1.0 5.0 0.00 0.00 0.00 49 1013.7
20260904164056 88 13 1.0 6.0 0.00 0.00 0.00 53 1013.7
20260904163555 88 0 2.0 6.0 0.00 0.00 0.00 51 1013.7
20260904163105 88 355 1.0 5.0 0.00 0.00 0.00 50 1013.6
20260904162555 87 0 1.0 5.0 0.00 0.00 0.00 51 1013.6
20260904162055 87 0 0.0 6.0 0.00 0.00 0.00 53 1013.6
20260904161606 87 0 1.0 6.0 0.00 0.00 0.00 53 1013.6
20260904161055 87 59 0.0 4.0 0.00 0.00 0.00 51 1013.5
20260904160556 86 5 1.0 4.0 0.00 0.00 0.00 52 1013.6
20260904155556 86 5 1.0 5.0 0.00 0.00 0.00 56 1013.5
20260904155056 85 0 1.0 5.0 0.00 0.00 0.00 56 1013.4
20260904154601 85 35 0.0 8.0 0.00 0.00 0.00 56 1013.4
20260904154058 85 312 2.0 8.0 0.00 0.00 0.00 57 1013.4
20260904153555 84 0 0.0 4.0 0.00 0.00 0.00 62 1013.4
20260904153112 83 0 0.0 5.0 0.00 0.00 0.00 63 1013.3
20260904152556 83 0 0.0 5.0 0.00 0.00 0.00 62 1013.3
20260904152057 82 0 0.0 3.0 0.00 0.00 0.00 63 1013.2
20260904151605 82 27 1.0 8.0 0.00 0.00 0.00 63 1013.0
20260904151056 81 0 0.0 8.0 0.00 0.00 0.00 67 1013.1
20260904150556 80 0 1.0 8.0 0.00 0.00 0.00 70 1013.0
20260904145558 78 101 0.0 4.0 0.00 0.00 0.00 78 1013.0
20260904145057 77 31 0.0 4.0 0.00 0.00 0.00 80 1013.0
20260904144603 76 0 1.0 4.0 0.00 0.00 0.00 82 1012.9
20260904144058 75 0 0.0 3.0 0.00 0.00 0.00 83 1012.9
20260904143558 74 47 0.0 3.0 0.00 0.00 0.00 86 1013.0
20260904143103 74 73 0.0 3.0 0.00 0.00 0.00 87 1013.1
20260904142558 74 0 0.0 5.0 0.00 0.00 0.00 87 1013.0
20260904142101 73 0 1.0 5.0 0.00 0.00 0.00 88 1013.0
20260904141601 73 17 1.0 5.0 0.00 0.00 0.00 89 1012.9
20260904141059 73 0 2.0 5.0 0.00 0.00 0.00 89 1012.9
20260904140600 72 5 2.0 4.0 0.00 0.00 0.00 90 1012.9
20260904140103 72 18 1.0 3.0 0.00 0.00 0.00 91 1012.8
20260904135558 71 15 0.0 2.0 0.00 0.00 0.00 91 1012.7
20260904135100 71 30 0.0 2.0 0.00 0.00 0.00 91 1012.8
20260904134600 71 19 0.0 2.0 0.00 0.00 0.00 91 1012.7
20260904134055 70 34 0.0 2.0 0.00 0.00 0.00 91 1012.6
20260904133600 70 0 0.0 2.0 0.00 0.00 0.00 90 1012.7
20260904133104 70 0 0.0 2.0 0.00 0.00 0.00 90 1012.5
20260904132556 69 23 0.0 3.0 0.00 0.00 0.00 90 1012.5
20260904132059 69 0 0.0 3.0 0.00 0.00 0.00 90 1012.5
20260904131609 69 0 0.0 4.0 0.00 0.00 0.00 90 1012.5
20260904131103 69 27 2.0 4.0 0.00 0.00 0.00 90 1012.5
20260904130556 68 14 1.0 4.0 0.00 0.00 0.00 90 1012.5
20260904130101 68 24 2.0 3.0 0.00 0.00 0.00 90 1012.4
20260904125558 68 0 0.0 0.0 0.00 0.00 0.00 90 1012.4
20260904125055 68 0 0.0 0.0 0.00 0.00 0.00 90 1012.4
20260904124602 68 0 0.0 2.0 0.00 0.00 0.00 89 1012.5
20260904124059 68 0 0.0 2.0 0.00 0.00 0.00 89 1012.4
20260904123558 68 0 0.0 2.0 0.00 0.00 0.00 89 1012.4
20260904123104 68 0 0.0 1.0 0.00 0.00 0.00 89 1012.3
20260904122557 68 0 0.0 1.0 0.00 0.00 0.00 89 1012.2
20260904122057 68 0 0.0 1.0 0.00 0.00 0.00 89 1012.1
20260904121556 68 0 0.0 1.0 0.00 0.00 0.00 89 1012.2
20260904121057 68 0 0.0 1.0 0.00 0.00 0.00 90 1012.2
20260904120557 69 0 0.0 3.0 0.00 0.00 0.00 90 1012.1
20260904115558 69 32 1.0 5.0 0.00 0.00 0.00 90 1011.8
20260904115055 69 55 2.0 5.0 0.00 0.00 0.00 90 1011.7
20260904114608 69 27 2.0 4.0 0.00 0.00 0.00 90 1011.6
20260904114055 69 17 1.0 6.0 0.00 0.00 0.00 90 1011.7
20260904113556 69 12 2.0 6.0 0.00 0.00 0.00 91 1011.7
20260904113100 69 25 3.0 6.0 0.00 0.00 0.00 91 1011.7
20260904112557 69 17 1.0 7.0 0.00 0.00 0.00 91 1011.6
20260904112056 69 24 2.0 7.0 0.00 0.00 0.00 91 1011.6
20260904111559 69 34 3.0 6.0 0.00 0.00 0.00 91 1011.6
20260904111058 69 31 3.0 7.0 0.00 0.00 0.00 91 1011.6
20260904110557 69 41 2.0 7.0 0.00 0.00 0.00 91 1011.5
20260904105558 70 360 2.0 7.0 0.00 0.00 0.00 92 1011.4
20260904105058 69 29 1.0 7.0 0.00 0.00 0.00 92 1011.3
20260904104604 69 45 1.0 4.0 0.00 0.00 0.00 91 1011.3
20260904104056 69 22 0.0 4.0 0.00 0.00 0.00 91 1011.2
20260904103556 69 22 2.0 4.0 0.00 0.00 0.00 91 1011.2
20260904103100 69 35 0.0 3.0 0.00 0.00 0.00 91 1011.1
20260904102556 69 0 0.0 3.0 0.00 0.00 0.00 91 1011.1
20260904102058 69 34 1.0 3.0 0.00 0.00 0.00 91 1011.2
20260904101611 69 34 1.0 3.0 0.00 0.00 0.00 90 1011.1
20260904101058 69 0 0.0 2.0 0.00 0.00 0.00 90 1011.3
20260904100557 69 0 0.0 1.0 0.00 0.00 0.00 91 1011.1
20260904100111 69 92 0.0 2.0 0.00 0.00 0.00 90 1011.0
20260904095558 69 0 0.0 2.0 0.00 0.00 0.00 90 1011.0
20260904095058 69 92 0.0 2.0 0.00 0.00 0.00 90 1011.0
20260904094610 69 0 0.0 2.0 0.00 0.00 0.00 90 1011.1
20260904094057 69 0 0.0 2.0 0.00 0.00 0.00 90 1011.0
20260904093558 69 0 0.0 2.0 0.00 0.00 0.00 89 1011.0
20260904093117 69 92 0.0 2.0 0.00 0.00 0.00 89 1010.9
20260904092557 69 92 0.0 2.0 0.00 0.00 0.00 89 1010.9
20260904092057 69 0 0.0 3.0 0.00 0.00 0.00 89 1010.9
20260904091616 69 0 1.0 3.0 0.00 0.00 0.00 89 1010.9
20260904091058 69 0 0.0 3.0 0.00 0.00 0.00 89 1010.9
20260904090557 69 89 1.0 3.0 0.00 0.00 0.00 88 1010.9
20260904090101 69 90 0.0 2.0 0.00 0.00 0.00 89 1010.8
20260904085558 69 71 1.0 3.0 0.00 0.00 0.00 88 1010.8
20260904085058 69 0 1.0 3.0 0.00 0.00 0.00 88 1010.7
20260904084600 70 105 1.0 3.0 0.00 0.00 0.00 88 1010.7
20260904084056 70 96 0.0 3.0 0.00 0.00 0.00 88 1010.6
20260904083557 70 101 0.0 3.0 0.00 0.00 0.00 88 1010.6
20260904083106 70 128 1.0 3.0 0.00 0.00 0.00 89 1010.5
20260904082601 70 0 0.0 1.0 0.00 0.00 0.00 88 1010.5
20260904082058 70 0 0.0 1.0 0.00 0.00 0.00 88 1010.4
20260904081610 70 0 0.0 2.0 0.00 0.00 0.00 88 1010.5
20260904081057 70 0 0.0 2.0 0.00 0.00 0.00 88 1010.4
20260904080601 70 0 0.0 2.0 0.00 0.00 0.00 88 1010.4
20260904075557 70 0 0.0 2.0 0.00 0.00 0.00 87 1010.6
20260904075057 70 92 0.0 2.0 0.00 0.00 0.00 88 1010.5
20260904074600 70 92 0.0 2.0 0.00 0.00 0.00 88 1010.6
20260904074059 70 92 0.0 2.0 0.00 0.00 0.00 88 1010.7
20260904073557 70 92 1.0 2.0 0.00 0.00 0.00 88 1010.6
20260904073121 70 88 0.0 1.0 0.00 0.00 0.00 87 1010.6
20260904072558 70 0 0.0 0.0 0.00 0.00 0.00 87 1010.6
20260904072057 70 0 0.0 0.0 0.00 0.00 0.00 87 1010.6